Flag for U.S.A. Weather past 2 weeks in Chico, California, U.S.A.

Now
63 °F

Sunny.


Feels Like: 63 °F
Forecast: 62 / 90 °F
Wind: 7 mph from Northwest

Location: Chico Municipal

Current Time: Sep 16, 2014 at 9:04:17 AM

Latest Report: Sep 16, 2014 at 7:50 AM


Visibility: 40 mi

Pressure: 29.92 "Hg

Humidity: 59%

Dew point: 48 °F

Location of ChicoLocation

Historic Weather in Chico — Graph

°F

Chico temperature yesterday

Maximum temperature yesterday: 95 °F (at 3:52 PM)
Minimum temperature yesterday: 66 °F (at 6:35 AM)
Average temperature yesterday: 80 °F

Past Weeks' High & Low Weather Summary

 TemperatureHumidityPressure
High100 °F (Sep 13, 4:58 PM)94% (Sep 9, 9:48 AM)29.99 "Hg (Sep 9, 9:48 AM)
Low50 °F (Sep 9, 9:48 AM)6% (Sep 4, 2:58 PM)29.60 "Hg (Sep 3, 6:55 PM)
Average77 °F31%29.79 "Hg
* Reported Sep 1 7:50 AM — Sep 16 7:50 AM, Chico, Weather by CustomWeather, © 2014

Note: Actual official high and low records may vary slightly from our data, if they occured in-between our weather recording intervals... More about our weather records

Advertising

Chico weather history for previous 24 hours

 ConditionsComfort  
Time TempWeatherWind HumidityBarometerVisibility
7:50 AM
Sep 16
63 °FSunny.7 mph59%29.92 "Hg40 mi
6:50 AM61 °FPassing clouds.No wind63%29.91 "Hg10 mi
6:35 AM61 °FClear.3 mph63%29.91 "Hg10 mi
6:15 AM61 °FClear.5 mph63%29.90 "Hg10 mi
5:55 AM61 °FClear.6 mph59%29.90 "Hg10 mi
5:35 AM64 °FClear.No wind56%29.88 "Hg10 mi
5:15 AM64 °FClear.3 mph56%29.88 "Hg10 mi
4:35 AM66 °FClear.7 mph49%29.87 "Hg10 mi
4:15 AM66 °FClear.7 mph52%29.87 "Hg10 mi
3:55 AM66 °FClear.9 mph52%29.87 "Hg10 mi
3:35 AM68 °FClear.8 mph46%29.87 "Hg10 mi
3:15 AM68 °FClear.10 mph46%29.86 "Hg10 mi
2:55 AM68 °FClear.13 mph46%29.87 "Hg10 mi
2:35 AM72 °FClear.10 mph38%29.87 "Hg10 mi
2:15 AM72 °FClear.8 mph33%29.86 "Hg10 mi
1:55 AM72 °FClear.8 mph33%29.86 "Hg10 mi
1:35 AM73 °FClear.9 mph29%29.86 "Hg10 mi
1:15 AM73 °FClear.9 mph29%29.86 "Hg10 mi
12:55 AM75 °FClear.13 mph27%29.85 "Hg10 mi
12:35 AM75 °FClear.14 mph29%29.85 "Hg10 mi
12:15 AM75 °FClear.13 mph31%29.85 "Hg10 mi
11:55 PM
Sep 15
75 °FClear.13 mph31%29.85 "Hg10 mi
11:35 PM75 °FClear.13 mph29%29.85 "Hg10 mi
10:55 PM77 °FPassing clouds.13 mph28%29.84 "Hg10 mi
10:35 PM79 °FPassing clouds.14 mph24%29.83 "Hg10 mi
10:15 PM81 °FClear.14 mph23%29.82 "Hg10 mi
9:55 PM82 °FPassing clouds.17 mph21%29.81 "Hg10 mi
9:35 PM82 °FPassing clouds.20 mph23%29.81 "Hg10 mi
9:15 PM84 °FClear.16 mph22%29.81 "Hg10 mi
8:55 PM84 °FClear.17 mph22%29.80 "Hg10 mi
8:35 PM84 °FPassing clouds.21 mph25%29.80 "Hg10 mi
7:55 PM88 °FSunny.13 mph22%29.78 "Hg10 mi
7:35 PM90 °FSunny.9 mph20%29.77 "Hg10 mi
7:15 PM91 °FSunny.10 mph18%29.77 "Hg10 mi
6:55 PM91 °FSunny.10 mph17%29.77 "Hg10 mi
5:52 PM95 °FPassing clouds.7 mph15%29.77 "Hg10 mi
4:59 PM95 °FPassing clouds.15 mph15%29.78 "Hg10 mi
3:52 PM95 °FScattered clouds.13 mph18%29.79 "Hg10 mi
2:54 PM93 °FScattered clouds.12 mph17%29.81 "Hg10 mi
1:47 PM91 °FScattered clouds.12 mph20%29.83 "Hg10 mi
12:58 PM90 °FScattered clouds.14 mph22%29.84 "Hg8 mi
11:55 AM88 °FBroken clouds.6 mph24%29.85 "Hg25 mi
10:50 AM84 °FScattered clouds.7 mph29%29.86 "Hg25 mi
9:50 AM81 °FScattered clouds.6 mph32%29.86 "Hg40 mi
Weather by CustomWeather, © 2014

See weather overviewHow to use our weather pages